Home > Weather > Reading > Past weeks

Flag for United Kingdom Past Weather in Reading, England, United Kingdom — Yesterday and Last 2 Weeks

Now
63 °F

Partly sunny.


Feels Like: 63 °F
Forecast: 54 / 65 °F
Wind: 8 mph from West

Location: Benson

Current Time: Jun 26, 2016 at 12:49:44 PM

Latest Report: Jun 26, 2016 at 11:50 AM


Visibility: N/A

Pressure: 30.07 "Hg

Humidity: 68%

Dew Point: 52 °F

Location of ReadingLocation

Past Weather in Reading — Graph

°F

Reading Temperature Yesterday

Maximum temperature yesterday: 63 °F (at 2:50 PM)
Minimum temperature yesterday: 46 °F (at 4:50 AM)
Average temperature yesterday: 56 °F

High & Low Weather Summary for the Past Weeks

 TemperatureHumidityPressure
High70 °F (Jun 12, 4:50 PM)100% (Jun 12, 2:50 AM)30.24 "Hg (Jun 12, 2:50 AM)
Low46 °F (Jun 18, 4:50 AM)57% (Jun 16, 2:50 PM)29.36 "Hg (Jun 14, 4:50 PM)
Average60 °F85%29.84 "Hg
* Reported Jun 11 10:50 AM — Jun 26 10:50 AM, Reading, Weather by CustomWeather, © 2016

Note: Actual official high and low records may vary slightly from our data, if they occured in-between our weather recording intervals... More about our weather records

Advertising

Reading Weather History for the Previous 24 Hours

Scroll right to see more
 ConditionsComfort  
Time TempWeatherWind HumidityBarometerVisibility
10:50 AM
Sun, Jun 26
61 °FPartly sunny.7 mph72%30.07 "HgN/A
9:50 AM59 °FBroken clouds.6 mph82%30.07 "HgN/A
8:50 AM59 °FBroken clouds.7 mph82%30.07 "HgN/A
7:50 AM57 °FPartly sunny.6 mph82%30.07 "HgN/A
6:50 AM55 °FPartly sunny.8 mph88%30.07 "HgN/A
5:50 AM52 °FPassing clouds.5 mph94%30.07 "HgN/A
4:50 AM54 °FPassing clouds.7 mph94%30.04 "HgN/A
3:50 AM54 °FPassing clouds.5 mph94%30.04 "HgN/A
2:50 AM55 °FPartly cloudy.6 mph94%30.04 "HgN/A
1:50 AM55 °FPassing clouds.8 mph94%30.07 "HgN/A
12:50 AM54 °FPassing clouds.3 mph100%30.07 "HgN/A
11:50 PM
Sat, Jun 25
54 °FPassing clouds.2 mph94%30.07 "HgN/A
10:50 PM54 °FPassing clouds.3 mph94%30.07 "HgN/A
9:50 PM57 °FPartly sunny.6 mph88%30.04 "HgN/A
8:50 PM57 °FPartly sunny.3 mph88%30.04 "HgN/A
7:50 PM59 °FScattered clouds.3 mph82%30.01 "HgN/A
6:50 PM57 °FPartly sunny.6 mph88%30.01 "HgN/A
5:50 PM59 °FOvercast.3 mph82%30.01 "Hg5 mi
4:50 PM61 °FPartly sunny.8 mph77%30.01 "HgN/A
3:50 PM63 °FPartly sunny.6 mph73%30.01 "HgN/A
2:50 PM63 °FPartly sunny.6 mph68%30.01 "HgN/A
1:50 PM61 °FScattered clouds.7 mph72%30.01 "HgN/A
12:50 PM59 °FPartly sunny.3 mph77%30.01 "HgN/A
Weather by CustomWeather, © 2016

See weather overviewHow to use our weather pages